Weather in Punta del Este

Uruguay     34°55′37″S   54°56′55″W
temp.,
°C
wind,
m/s
gust,
m/s
humid.,
%
clouds,
%
prec.,
mm/h
press.,
hPa
HPBL,
m
9 august, tue
tue900:00+11ese5773100 0.1 1030160
03:00+11ese6774100 0.2 1030198
06:00+11se678072 0.0 1030477
09:00+11se568013 0.0 1032569
12:00+11se67754 0.0 1032658
15:00+11se66740 0.0 1031537
18:00+11se55740 0.0 1030510
21:00+11se55772 0.0 1031575
10 august, wed
wed1000:00+11ese45720 0.0 1031628
03:00+10ese23660 0.0 1030353
06:00+10ene22700 0.0 1029242
09:00+10sse11730 0.0 1030166
12:00+10sse22730 0.0 1029252
15:00+11ese557252 0.0 1027297
18:00+11e5680100 0.0 1026240
21:00+10ene5781100 0.0 1026229
11 august, thu
thu1100:00+9ne5779100 0.0 1026199
03:00+9nne468121 0.0 1026147
06:00+9n44850 0.0 1025128
09:00+9nnw44850 0.0 1026149
12:00+12wnw22770 0.0 102655
15:00+12se11740 0.0 102328
18:00+14nne34690 0.0 102224
21:00+11nne58815 0.0 1022140
12 august, fri
fri1200:00+10nne59805 0.0 1022188
03:00+10nne59835 0.0 1021200
06:00+10nne5108812 0.0 1021232
09:00+10nne61086100 0.0 1021254
12:00+14nne6774100 0.0 102072
15:00+15nne4472100 0.0 101728
18:00+14ne4580100 0.0 101628
21:00+13nne5788100 0.0 101771
13 august, sat
sat1300:00+12nne46920 0.0 101762
03:00+12n57923 0.3 101772
06:00+12nnw33931 0.6 101731
09:00+12nw22925 0.6 101920
12:00+12s11925 0.0 101911
15:00+14ese33875 0.0 101753
18:00+13e57895 0.0 101755
21:00+13ene68913 0.0 101884